Location: Asheville, NC
(35.6000°N, 82.5500°W)
Time: 12:57:35
(UTC-05:00)

NUDT-PHONESAT - Pass Details

Date: 03 January 2018
Orbit: 494 x 513 km, 97.4° (Epoch: 17 January)

Event Time Altitude Azimuth Distance (km) Brightness Sun altitude
Rises 18:09:42 0° 170° (S) 2,601 ? -8.2°
Reaches altitude 10° 18:11:46 10° 171° (S) 1,722 ? -8.6°
Maximum altitude 18:15:29 79° 258° (WSW) 524 ? -9.3°
Drops below altitude 10° 18:19:14 10° 346° (NNW) 1,739 ? -10.0°
Sets 18:21:20 0° 347° (NNW) 2,630 ? -10.4°
